Location: Brno
(49.2000°N, 16.6330°E)
Time: 19:12:19
(UTC+02:00)

Transit 4A - Pass Details

Date: 03 August 2021
Orbit: 871 x 974 km, 66.8° (Epoch: 16 September)

Event Time Altitude Azimuth Distance (km) Brightness Sun altitude
Rises 02:37:17 0° 260° (W) 3,476 - -19.9°
Exits shadow 02:39:21 - 269° (W) 2,797 10.1 -19.7°
Reaches altitude 10° 02:40:14 10° 274° (W) 2,530 10.0 -19.7°
Maximum altitude 02:44:59 25° 328° (NNW) 1,694 9.6 -19.3°
Drops below altitude 10° 02:49:44 10° 23° (NNE) 2,530 11.4 -19.0°
Sets 02:52:42 0° 37° (NE) 3,475 12.5 -18.8°
